RH
55 33 22 22 21 14 14 10 6 7 11 9 15 12 16 12 15 24 40 36 41 49 54 64 76 78 79 79 75 75 76 77 77 78 79 78 79 80 83 84 84 84 85 85 83 84 86 80 79
23 21 22 20 18 16 11 6 8 9 11 20 23 28 26 17 28 35 38 35 44 49 55 69 78 77 80 78 77 74 76 76 76 76 76 78 80 79 79 80 81 81 82 84 86 86 85 86 81
23 16 20 17 15 12 11 8 7 9 21 24 26 30 25 30 30 31 30 39 45 55 61 72 76 76 77 78 75 73 75 76 77 77 77 77 77 79 79 79 78 79 79 80 81 81 81 78 83
20 20 17 22 16 11 9 7 12 14 18 21 24 27 33 29 30 27 36 44 48 60 65 75 74 74 75 77 74 73 74 75 75 76 77 77 78 77 77 78 77 78 77 77 78 79 79 77 78
25 20 23 19 15 9 7 7 6 12 10 17 22 20 29 28 26 30 43 48 54 63 71 72 76 74 74 76 76 75 74 74 75 76 76 76 76 76 76 76 75 75 76 75 76 77 77 76 74
26 20 23 20 14 10 8 7 8 10 9 15 23 21 23 25 30 38 47 53 55 65 73 74 75 75 76 78 76 74 75 74 73 75 74 73 72 72 72 71 72 72 72 72 72 75 75 74 73
32 27 25 21 17 14 11 7 9 10 11 11 18 21 26 28 30 42 50 53 60 65 71 76 74 73 78 77 77 76 76 74 75 77 74 72 71 69 69 70 69 69 68 69 70 71 73 73 70
27 29 30 24 21 19 13 12 11 16 13 20 17 19 21 25 30 48 53 55 61 66 67 72 75 70 71 69 75 75 77 76 77 73 69 66 63 62 63 65 67 67 65 63 61 63 67 67 65
28 33 31 24 21 17 15 16 17 24 22 23 23 24 24 27 34 56 60 62 65 64 65 68 70 68 66 66 66 71 73 74 73 62 52 40 37 42 53 64 65 64 63 60 56 51 42 35 45
34 34 28 18 16 16 14 18 16 24 22 24 26 27 26 30 42 61 65 69 71 68 66 66 67 64 61 58 58 57 50 37 31 25 24 25 31 37 41 48 52 48 47 45 44 40 32 25 20
33 38 22 19 18 19 20 17 19 23 21 15 21 26 30 32 41 55 59 64 70 64 65 66 63 59 59 57 53 43 30 30 26 22 22 23 24 26 26 26 23 21 24 20 21 21 21 20 20
34 27 25 24 20 24 24 20 19 22 23 14 18 20 30 32 37 45 54 58 65 64 63 63 61 57 54 51 39 28 27 27 26 26 25 24 26 26 24 24 24 21 19 19 21 19 19 18 18
27 27 23 21 26 26 26 28 25 23 18 17 20 28 32 32 31 34 42 49 57 64 63 62 60 57 47 38 25 22 24 24 27 30 30 27 26 26 27 27 28 26 25 22 20 18 18 17 17
24 28 30 26 27 28 31 30 27 23 20 21 20 30 28 30 30 31 37 46 52 56 59 59 58 51 41 30 23 21 22 26 28 29 32 32 31 30 31 30 30 32 32 28 27 22 20 19 18
29 36 28 26 26 29 27 37 32 25 22 22 24 26 31 30 29 31 33 38 45 49 53 55 53 44 35 29 27 24 25 25 29 30 30 31 31 30 33 33 31 32 33 32 31 28 27 27 21
31 28 36 22 23 27 34 31 18 20 20 24 26 26 29 33 31 28 30 34 39 46 49 50 44 43 36 31 32 27 26 26 27 28 28 30 32 31 32 34 36 35 33 34 33 28 29 29 30
26 32 30 25 23 26 36 27 16 18 20 19 17 19 26 30 35 30 30 32 37 41 44 50 46 41 37 35 34 33 29 28 28 29 30 33 33 32 33 37 40 37 37 34 30 35 32 29 30
40 27 21 23 25 29 29 31 20 16 18 19 18 16 21 29 32 34 32 33 35 38 42 44 41 38 35 39 38 36 35 34 29 29 31 33 35 33 34 35 38 37 39 37 35 34 35 35 31
23 23 28 24 19 23 26 26 23 20 20 19 18 19 18 21 28 33 34 36 37 38 42 41 41 38 38 42 40 38 37 34 32 31 32 30 31 33 33 35 36 36 37 38 35 40 38 38 36
30 31 27 22 22 26 28 28 22 20 20 21 22 28 29 28 26 35 37 38 41 39 37 39 38 39 38 39 38 36 33 32 33 36 32 32 32 34 31 33 35 35 38 38 36 38 40 41 41
27 28 27 31 27 24 27 28 22 24 25 28 30 36 40 38 30 38 39 41 42 42 40 37 37 40 37 35 36 36 35 35 36 36 36 34 33 35 37 35 35 38 37 40 39 40 41 38 41
35 25 29 33 35 39 24 34 20 23 32 36 44 48 51 50 39 40 43 45 46 45 46 43 40 42 36 36 36 34 35 38 35 35 34 35 33 36 38 38 36 38 39 39 38 37 40 39 38
34 23 25 29 33 35 32 40 28 26 40 74 78 66 62 58 51 50 48 45 46 47 49 44 42 43 40 40 37 38 38 34 35 35 37 36 37 38 39 38 38 39 39 41 41 40 40 42 39
22 26 28 30 33 57 32 35 48 59 87 84 61 58 65 64 54 50 48 46 48 49 52 50 46 45 40 39 37 37 34 34 38 38 39 38 40 41 40 39 39 39 40 41 42 42 42 41 40
25 34 56 65 71 53 34 40 83 74 84 78 77 74 80 73 60 56 55 54 58 56 51 50 49 47 42 38 38 34 35 35 37 37 39 41 43 42 43 41 41 40 42 44 44 42 42 41 41
31 36 55 71 48 51 54 71 88 85 81 80 74 75 54 71 62 59 56 54 55 72 63 52 52 53 47 42 39 36 38 40 40 39 41 41 43 44 43 43 43 44 44 45 44 44 43 42 42
38 43 52 70 41 60 36 65 73 62 68 67 72 53 58 56 59 59 56 55 52 54 85 76 56 64 60 49 42 40 41 44 46 46 43 41 40 41 44 44 44 45 46 45 44 44 43 43 42
52 43 60 57 69 55 35 38 74 84 81 90 96 94 81 60 54 54 55 52 48 49 51 69 83 70 86 73 71 48 49 47 45 43 44 45 49 49 51 50 46 46 45 45 45 45 44 45 45
53 48 53 72 70 70 54 66 99 88 93 93 100 97 89 73 64 47 46 50 55 56 51 53 67 81 81 84 79 73 61 56 47 54 47 46 47 47 52 51 47 48 46 45 45 44 46 49 47
56 58 62 78 63 82 79 71 97 100 98 95 91 67 43 40 42 46 44 43 43 45 45 50 55 65 78 83 86 85 78 70 71 56 59 48 49 48 46 45 46 47 47 46 48 50 47 48 49
Wind_Speed
9 10 4 5 7 8 15 18 15 9 5 5 5 6 7 12 7 3 9 4 16 16 14 10 14 12 12 12 14 16 17 16 16 16 15 16 17 18 19 19 19 19 19 19 19 18 18 14 14
7 8 5 4 9 14 13 18 19 7 3 3 2 6 6 9 7 9 9 9 13 14 10 7 16 14 12 13 14 17 18 16 16 16 17 17 16 16 18 18 18 18 19 19 18 16 15 15 15
9 9 5 6 11 18 14 5 7 3 2 3 4 2 6 3 6 10 6 15 14 11 8 12 17 14 11 12 14 17 18 15 15 16 17 17 17 17 17 16 17 17 17 16 17 15 16 14 14
6 5 5 10 18 16 17 10 3 2 3 6 6 6 5 4 4 5 14 14 13 10 5 13 16 16 13 13 13 15 16 15 14 16 16 16 16 17 16 16 16 16 16 16 16 15 16 15 14
6 6 11 16 21 22 19 12 9 11 7 7 9 6 2 7 6 12 16 13 14 9 9 12 15 15 15 13 13 15 15 15 15 16 16 16 16 17 17 16 16 15 15 15 15 15 15 15 15
7 5 11 15 21 21 19 16 15 16 15 7 7 9 2 10 11 13 14 13 12 9 4 9 15 16 16 15 14 14 15 15 15 17 16 16 16 16 15 15 16 15 14 15 15 15 15 14 14
14 11 15 19 20 20 16 8 13 14 16 14 4 9 5 10 11 14 13 12 9 7 7 5 11 14 16 17 15 16 17 16 17 19 18 17 17 16 16 17 15 14 14 15 14 14 14 14 14
9 11 19 18 19 22 11 2 5 9 16 7 7 6 5 14 14 14 13 11 8 6 8 8 7 12 12 10 18 18 18 19 19 19 18 17 16 15 15 15 15 15 15 14 13 14 14 14 15
10 9 14 26 20 18 1 5 7 3 9 2 7 4 5 17 16 15 12 10 7 6 7 7 9 12 13 12 14 16 16 16 15 14 11 7 8 11 13 14 14 14 14 13 12 12 9 7 12
13 13 22 19 15 14 12 8 12 6 10 11 9 7 9 16 17 18 16 13 10 9 7 7 9 11 12 10 11 11 9 5 6 7 7 7 8 9 10 11 12 11 11 11 12 11 10 8 6
11 21 18 17 7 9 14 15 10 11 16 15 14 14 14 16 17 18 18 18 16 12 7 8 10 11 11 9 7 4 4 4 4 6 6 7 6 5 4 4 3 4 5 4 6 7 7 9 6
16 20 21 20 17 9 15 16 18 12 23 18 6 5 21 20 18 18 17 18 19 15 12 11 10 10 10 7 6 7 5 5 4 5 6 5 4 4 4 3 4 4 4 6 5 4 6 7 8
22 21 17 16 13 17 16 20 19 22 22 15 6 5 17 18 18 17 17 17 20 18 13 13 11 9 8 8 8 7 7 5 6 5 5 4 5 5 4 4 4 5 5 5 5 5 5 6 7
4 13 17 15 18 16 17 18 17 22 15 19 15 11 13 17 18 17 18 19 20 20 19 14 12 10 10 9 10 8 6 7 6 5 5 5 5 5 4 4 5 5 5 5 5 5 4 4 5
11 14 16 19 20 17 9 17 19 22 19 19 13 12 13 15 16 19 18 18 19 17 18 17 14 14 13 12 10 8 7 7 6 6 6 6 5 5 5 4 5 5 4 5 4 4 4 4 4
8 15 15 6 11 5 8 14 10 10 5 8 11 12 13 14 15 15 16 16 17 17 19 17 14 15 13 11 8 8 8 7 7 6 6 7 6 6 5 5 5 4 4 4 4 3 3 3 3
15 15 17 15 13 5 14 11 3 3 4 8 8 9 11 12 14 14 16 16 16 18 19 17 16 16 14 13 8 9 9 7 7 6 6 7 6 6 6 5 5 4 4 4 3 4 3 3 4
14 18 17 13 6 8 12 16 15 16 11 14 13 11 11 10 12 13 15 16 17 17 18 18 15 16 15 10 9 7 7 6 7 6 6 8 5 6 6 5 5 4 4 4 4 5 5 4 3
21 19 17 13 9 8 16 19 18 17 15 17 15 12 11 8 10 13 13 15 16 17 18 20 17 17 12 10 10 9 8 8 7 6 8 7 6 6 6 5 5 5 5 5 4 4 4 5 2
16 17 17 14 7 6 15 20 18 17 15 10 7 10 10 10 5 11 13 15 16 17 18 18 18 16 13 9 8 8 9 8 7 7 7 7 7 5 5 5 5 5 5 5 5 3 3 4 4
14 15 12 11 5 11 14 18 20 6 9 8 9 8 7 6 6 8 11 13 14 16 17 17 17 16 14 14 9 8 8 8 7 8 7 6 7 6 5 5 5 5 4 4 5 4 5 3 4
12 6 2 6 5 8 1 9 11 11 9 9 8 7 8 7 4 6 8 10 11 11 12 14 14 14 14 15 12 15 9 10 8 8 7 7 7 7 6 5 4 5 4 4 4 4 4 3 3
2 4 2 6 11 12 14 8 3 8 10 7 7 8 7 6 6 5 6 8 9 9 10 11 13 13 13 12 11 10 10 8 8 8 11 9 7 7 6 5 4 4 3 4 4 4 5 4 3
2 2 3 3 4 7 17 15 2 4 2 3 6 9 7 6 5 6 6 7 9 10 10 11 13 13 13 12 12 12 12 12 9 9 8 7 6 5 5 4 3 3 3 3 3 3 4 4 3
3 4 4 6 7 5 5 6 3 4 3 3 4 5 5 3 4 5 7 8 9 11 12 11 13 13 13 13 11 9 10 12 13 12 8 8 6 5 6 5 4 3 2 2 2 2 2 3 3
9 7 6 6 5 3 5 6 2 3 1 1 2 4 2 4 3 5 6 7 9 8 10 12 13 12 12 12 12 10 10 7 8 9 7 6 6 6 7 5 4 3 3 2 1 2 2 2 3
5 6 2 5 9 7 9 3 4 6 4 2 2 2 4 4 4 3 5 6 8 10 6 8 12 10 11 11 10 11 10 10 9 10 8 6 7 6 7 5 4 4 3 2 2 1 2 2 3
4 3 3 3 5 10 8 8 4 8 7 3 4 4 4 5 3 4 4 5 6 9 10 5 4 10 7 9 7 8 9 9 9 9 10 8 6 6 7 6 6 4 4 4 3 3 3 4 3
4 5 4 4 7 9 12 4 7 9 10 8 4 3 2 3 3 2 4 6 8 8 9 11 9 8 8 9 9 10 9 9 8 7 8 8 8 8 7 7 7 7 6 5 5 4 4 5 5
2 5 5 6 7 3 7 9 7 7 8 5 3 6 4 3 3 1 4 5 6 8 9 11 12 12 12 11 11 9 9 8 8 8 8 8 9 8 8 7 7 6 6 6 6 5 5 6 5
Wind_Direction
201 205 193 201 230 234 249 241 263 231 303 267 333 209 265 244 276 242 130 116 134 148 147 155 139 120 116 114 118 110 101 96 95 91 84 84 82 74 68 69 69 72 68 70 66 62 62 80 80
205 181 196 240 248 237 240 237 248 244 279 66 322 275 263 250 79 117 148 172 158 143 147 151 137 122 122 125 123 116 105 103 99 98 96 90 85 82 80 77 74 72 70 68 70 64 62 56 67
229 218 230 220 235 243 258 22 324 85 115 179 220 258 309 53 75 134 99 160 156 135 156 148 139 137 135 128 123 114 108 108 107 101 98 93 89 85 77 76 76 76 75 70 68 67 65 64 62
187 201 254 242 242 245 256 273 146 190 195 219 222 240 117 47 124 124 139 148 150 143 166 148 148 142 136 129 123 115 116 113 109 104 97 94 92 91 85 80 76 73 74 72 69 66 61 62 64
229 244 246 234 250 253 255 238 260 242 249 192 195 221 172 144 117 134 144 152 147 144 146 142 144 141 134 129 122 118 116 113 112 104 96 94 92 87 85 80 78 77 72 72 68 67 63 61 60
206 254 241 245 251 250 250 252 242 235 254 192 206 254 177 120 155 153 148 147 146 131 131 149 145 139 132 126 119 114 111 106 102 97 92 90 87 85 83 81 74 74 75 71 67 65 65 64 63
235 223 250 262 268 275 280 230 242 252 249 224 233 224 101 159 157 152 151 139 131 127 114 109 139 132 127 118 114 106 102 102 93 88 83 78 78 77 73 72 76 74 71 69 62 60 63 59 59
229 252 260 250 256 265 298 356 243 269 258 4 152 241 208 152 151 152 141 140 128 118 112 102 119 125 115 111 109 99 95 94 86 94 94 94 84 75 73 70 63 64 60 61 60 55 53 59 61
231 235 241 246 249 260 150 239 156 356 265 241 177 320 80 129 152 153 154 149 135 128 117 118 125 120 115 109 105 98 97 94 104 100 106 105 94 93 84 75 73 68 69 66 59 58 53 69 66
212 226 239 250 269 283 275 216 267 212 218 221 224 127 139 153 166 169 173 169 165 149 137 129 129 114 118 123 116 106 121 122 125 130 122 92 82 85 89 87 84 76 74 62 54 45 41 39 39
221 244 251 266 264 282 278 271 253 251 256 248 242 197 174 176 181 185 182 179 171 157 149 149 129 123 120 116 116 123 127 118 112 108 106 112 121 122 100 110 87 89 74 64 60 49 44 39 34
241 239 251 269 278 279 265 273 263 245 256 282 311 270 170 188 193 194 188 184 174 166 160 151 147 138 134 131 138 139 140 132 125 108 116 114 103 96 90 82 79 60 48 66 58 68 68 69 58
233 247 264 255 267 266 269 262 271 263 266 256 243 208 183 193 196 194 193 186 178 176 167 161 151 149 141 150 141 146 131 136 116 112 100 107 104 96 92 79 71 67 54 41 57 57 73 66 63
268 255 262 264 254 256 249 258 250 254 258 249 237 206 209 206 199 191 192 189 185 179 172 165 163 155 153 150 148 141 135 123 122 115 103 91 95 96 87 83 74 62 52 53 46 34 54 68 75
266 259 262 249 249 244 258 261 243 251 263 259 244 213 227 215 204 201 193 192 184 182 176 174 166 163 164 155 148 141 136 136 128 122 116 108 103 98 98 83 75 65 61 67 67 61 65 70 68
242 237 256 239 220 197 191 262 262 214 269 231 235 230 227 221 216 204 191 190 184 177 177 174 172 168 162 155 144 140 146 142 130 128 119 111 104 104 95 90 74 66 62 63 50 42 84 76 75
228 257 241 240 175 177 209 274 195 159 228 238 229 227 213 211 204 204 189 185 182 181 175 173 173 170 160 151 146 142 144 136 134 130 123 117 110 104 100 93 90 83 77 67 69 60 28 75 93
235 243 240 257 159 214 230 247 264 270 233 255 263 256 209 208 206 196 188 181 181 180 174 175 171 169 157 146 141 140 144 138 140 135 124 124 115 110 105 102 91 77 85 72 63 81 65 47 72
272 273 268 268 252 243 254 261 261 259 254 259 262 256 260 213 178 169 184 179 179 179 175 177 172 165 158 157 155 154 152 147 143 130 133 126 126 117 113 104 100 85 69 63 49 41 55 62 4
241 249 253 261 273 252 267 272 273 263 269 303 338 20 354 329 269 160 173 179 182 181 180 177 176 167 166 160 158 157 148 148 138 131 133 125 118 110 110 105 99 102 107 94 76 59 107 81 20
234 241 251 269 315 255 268 276 261 95 96 76 54 48 17 338 276 163 175 179 180 181 181 179 175 169 167 162 150 144 137 136 140 146 134 134 122 107 99 89 88 84 79 85 79 66 24 96 84
245 24 309 282 274 275 271 282 293 175 141 65 34 34 33 26 40 128 170 176 179 182 175 171 170 170 170 161 157 158 157 157 156 151 137 135 130 118 107 97 83 71 66 69 63 57 50 1 69
33 32 343 285 271 284 255 257 203 152 139 36 28 37 44 42 60 109 150 165 171 170 169 169 164 172 169 160 164 161 158 150 142 140 140 138 128 123 117 111 103 84 62 61 57 55 48 44 30
82 292 265 286 261 252 241 202 146 100 60 63 47 52 43 43 83 107 130 150 163 162 166 169 167 175 168 172 167 173 159 146 145 146 146 143 137 133 129 123 112 96 88 83 64 50 35 28 25
199 210 223 203 194 247 120 227 12 69 85 65 45 30 17 31 92 120 139 152 159 165 174 172 177 174 172 177 172 162 151 151 151 149 143 142 141 147 149 151 143 137 106 76 38 19 15 3 345
203 260 274 278 298 332 162 232 141 112 98 9 277 251 148 113 97 122 143 157 161 165 175 180 179 176 173 169 164 153 146 149 144 145 143 147 151 149 147 155 156 144 139 117 36 345 325 324 307
156 216 9 307 262 266 250 108 121 133 120 97 52 67 67 78 102 127 141 155 161 172 173 189 179 164 173 163 156 151 154 147 145 140 140 144 144 147 154 159 161 163 162 177 170 241 251 264 284
301 15 244 193 261 253 248 266 143 169 153 131 77 59 57 64 91 139 160 161 156 163 175 176 184 160 150 144 134 135 137 139 139 138 138 140 138 150 157 165 174 175 188 196 200 208 228 246 244
206 224 203 295 271 266 272 264 344 147 136 119 48 46 20 17 24 87 144 158 167 171 171 169 153 152 140 126 133 139 146 147 135 137 142 151 159 168 166 175 178 183 192 200 213 224 225 242 254
334 296 326 259 258 318 289 273 26 78 106 109 26 326 351 355 28 136 133 152 164 167 169 169 170 167 159 150 140 133 130 128 142 150 150 153 167 168 171 178 184 189 199 205 211 222 227 245 251